Cloud_Cover
0 0 0 0 0 2 8 100 100 100 100 100 100 100 98 99 99 100 100 100 100 100 95 65 62 55 47 8 0 0 0 0 0 0 0 4 0 5 5 11 45 5 5 4 2 0 0 5 0
0 0 0 0 0 0 15 32 100 100 100 90 84 99 74 85 22 70 100 100 100 100 100 100 100 100 95 23 5 0 0 0 0 0 0 0 0 0 0 5 5 5 5 4 0 2 5 0 0
0 0 0 0 0 0 40 8 97 88 100 100 98 100 98 65 96 73 3 62 100 100 100 100 62 100 91 5 5 4 81 4 0 0 0 0 4 4 4 4 5 6 0 0 0 0 0 0 0
0 0 0 0 0 0 91 55 5 74 100 100 100 100 100 29 16 78 50 29 33 80 48 38 47 22 66 39 5 1 6 2 5 2 5 3 2 5 5 2 5 5 0 0 0 0 0 0 0
0 0 0 0 0 9 16 7 34 1 69 100 100 100 100 93 90 27 24 44 47 100 60 30 5 30 55 12 5 2 5 4 0 0 0 0 0 4 0 0 5 2 0 0 0 0 0 0 0
0 0 0 0 0 100 6 3 0 24 5 72 100 100 100 100 100 67 60 6 62 87 98 38 39 76 100 99 48 53 5 5 2 0 0 0 0 4 5 1 3 0 0 0 0 0 0 0 0
0 0 0 0 2 100 59 0 0 64 5 5 24 62 70 100 100 100 100 77 16 71 100 81 50 100 98 100 100 96 100 5 76 8 0 0 1 5 1 0 0 0 5 5 0 0 0 0 0
0 0 0 0 0 100 63 50 0 0 5 5 5 20 51 99 80 100 88 100 100 100 100 100 100 94 69 100 100 100 72 100 68 1 3 4 5 5 5 0 5 5 5 2 5 2 5 0 0
0 0 0 0 0 78 80 91 14 0 7 6 5 1 5 55 100 99 100 100 100 100 100 100 100 81 98 100 100 100 95 85 5 16 5 94 100 97 10 7 5 5 4 4 3 2 0 0 5
0 0 0 0 0 2 100 82 100 0 4 22 1 5 1 46 100 100 100 100 100 100 100 100 99 72 97 88 72 98 100 49 100 100 97 93 46 31 34 53 100 88 78 99 8 0 0 3 5
0 0 0 0 0 0 0 13 99 1 0 5 0 12 14 70 100 97 100 100 69 52 100 100 100 100 100 44 99 100 94 100 100 56 8 75 59 12 68 98 100 100 96 98 52 8 5 5 4
0 0 0 0 0 0 0 0 0 32 0 2 3 4 15 4 12 100 98 100 100 100 100 100 100 100 98 100 100 100 100 40 60 97 69 52 73 86 98 100 100 100 100 100 100 100 82 45 42
0 0 0 0 0 0 0 0 0 40 0 0 1 2 5 5 17 100 100 96 100 100 100 100 62 100 100 100 93 72 51 73 100 100 94 100 100 73 100 100 100 100 100 100 100 100 100 100 80
0 0 0 0 0 0 0 0 0 1 0 3 2 0 2 6 100 100 100 100 100 99 100 90 67 99 100 100 85 25 100 99 95 95 100 100 100 100 100 100 100 100 100 100 100 100 100 100 100
0 0 0 0 0 0 0 0 0 0 3 0 5 5 5 0 76 100 63 100 100 100 99 100 13 54 67 62 49 56 94 100 100 93 100 100 86 100 100 100 100 100 100 100 100 100 100 100 100
0 0 0 0 0 0 0 0 0 0 2 7 6 31 39 5 38 100 93 94 100 100 99 100 78 36 89 100 100 88 100 100 100 100 100 100 100 100 100 100 100 100 100 100 100 100 100 100 100
0 0 0 0 0 0 0 0 0 0 0 33 5 5 84 6 8 88 96 89 100 29 14 96 32 98 60 57 79 100 100 100 100 100 100 100 100 100 100 100 99 100 92 73 95 100 100 98 48
0 0 0 0 0 0 0 0 0 0 0 0 5 8 18 42 5 3 12 3 1 3 0 9 68 80 100 45 90 100 100 100 100 100 100 100 94 100 100 100 100 89 100 11 100 70 70 6 67
4 2 0 0 0 0 0 0 0 0 0 0 5 5 5 5 73 32 17 40 4 6 4 5 100 73 90 100 97 100 100 100 100 100 100 100 100 100 100 100 100 100 88 82 8 18 5 6 72
5 3 0 0 0 0 0 0 0 0 0 0 0 4 5 5 0 0 1 4 5 2 5 5 57 100 100 100 100 100 100 100 100 100 100 100 100 100 100 100 100 100 100 100 84 5 2 7 96
5 0 0 3 0 0 0 0 4 0 0 0 0 0 1 1 5 5 28 13 6 5 5 100 100 100 100 100 100 100 100 100 100 100 100 100 100 100 100 100 100 100 100 100 100 100 99 100 100
4 2 14 4 2 1 0 0 5 4 59 14 1 0 0 0 14 26 4 28 39 5 5 100 100 100 100 100 100 100 100 100 100 100 100 100 100 100 100 100 100 100 100 100 100 100 100 100 100
99 44 100 89 15 4 5 0 1 5 0 10 11 2 8 2 0 16 5 1 1 1 10 98 100 100 100 100 100 100 100 100 100 100 100 100 100 100 100 100 100 100 100 100 100 96 34 100 100
100 100 100 100 86 7 5 3 5 5 0 0 68 13 18 30 0 0 3 4 0 1 32 75 100 100 100 100 100 100 100 100 100 100 100 100 100 100 100 100 100 100 90 100 15 5 23 85 5
100 100 100 100 91 5 11 5 5 2 0 0 17 3 0 0 1 0 15 22 2 7 0 4 100 100 100 100 100 100 100 100 100 100 100 100 100 100 100 100 100 100 84 86 65 97 98 26 36
100 100 100 14 0 2 39 12 9 13 4 0 0 0 0 0 0 1 15 6 0 14 0 1 100 100 100 100 100 100 100 100 100 100 100 100 100 100 100 100 100 100 100 88 57 94 19 88 91
100 100 100 94 6 34 13 6 94 94 5 1 0 0 0 0 0 0 0 2 0 8 0 1 100 100 100 100 100 100 100 100 100 100 100 100 100 100 100 100 100 100 100 100 100 100 100 100 42
100 100 100 100 64 84 50 9 99 100 100 43 5 0 0 0 0 0 0 0 5 2 0 0 100 100 100 100 100 100 100 100 100 100 100 100 100 100 100 100 100 100 100 100 100 99 100 98 74
100 100 100 100 100 100 100 44 54 100 27 5 2 0 0 0 0 0 0 4 5 6 26 35 100 100 100 100 100 100 100 100 100 100 100 100 100 100 100 100 100 100 100 100 67 46 98 98 62
100 100 100 100 100 100 98 9 5 45 23 5 0 0 0 0 0 0 0 0 5 81 99 96 100 100 100 100 100 100 100 100 100 100 100 100 100 100 100 100 100 100 100 100 100 100 99 34 3